SCP
0 0 0 0 0 0 0 0 0 0 0 -0 0 0 0 0 0 0 0 -0 -0 0 -0 0 0 0 0 0 0 0 0 -0 0 0 0 0 0 0 0 0 0 0 0 0
0 0 0 0 0 0 0 0 0 0 0 0 -0 0 0 0 0 0 -0 0 0 0 -0 -0 -0 -0 -0 -0 -0 -0 -0 -0 0 0 0 0 0 0 0 0 0 0 0 0
0 0 0 0 0 0 0 0 0 0 0 0 0 0 0 0 0 0 0 -0 0 0 -0 -0 -0 -0 -0 0 0 0 0 0 0 0 0 0 0 0 0 0 0 0 0 0
0 0 0 0 0 0 0 0 0 0 0 0 0 -0 0 0 0 0 0 0 0 0 0 0 0 0 0 0 0 0 0 0 0 0 0 0 0 0 0 0 0 0 0 0
0 0 0 0 0 0 0 0 0 0 0 0 0 0 0 0 0 0 0 0 0 0 0 0 0 0 0 0 0 0 0 0 0 0 0 0 0 0 0 0 0 0 0 0
0 0 0 0 0 0 0 0 0 0 0 0 0 1 0 0 0 0 0 0 0 0 0 0 0 0 0 0 0 0 0 0 0 0 0 0 0 0 0 0 0 0 0 0
0 0 0 0 0 0 0 0 0 1 1 0 0 0 0 0 0 0 0 0 0 0 0 0 0 0 0 0 0 0 0 0 0 0 0 0 0 0 0 0 0 0 0 0
0 0 0 0 0 0 0 0 0 0 0 0 0 0 0 0 0 0 0 0 0 0 0 0 0 0 0 0 0 0 0 0 0 0 0 0 0 0 0 0 0 0 0 0
0 0 0 0 0 0 0 0 0 0 0 0 0 0 0 0 0 0 0 0 0 0 0 0 0 0 0 0 0 0 0 0 0 0 0 0 0 0 0 0 0 0 0 0
0 0 0 0 0 0 0 0 0 0 0 0 0 0 0 0 0 0 0 0 0 0 0 0 0 0 0 0 0 0 0 0 0 0 0 0 0 0 0 0 0 0 0 0
0 0 0 0 0 0 0 0 0 0 0 0 0 0 0 0 0 0 0 0 0 0 0 0 0 0 0 0 0 0 0 0 0 0 0 0 0 0 0 0 0 0 0 0
0 0 0 0 0 0 0 0 0 0 0 0 0 0 0 0 0 0 0 0 0 0 0 0 0 0 0 0 0 0 0 0 0 0 0 0 0 0 0 0 0 0 0 0
0 0 0 0 0 0 0 0 0 0 0 0 0 0 0 0 0 0 0 0 0 0 0 0 0 0 0 0 0 0 0 0 0 0 0 -0 -0 0 0 0 0 0 0 0
0 0 0 0 0 0 0 0 0 0 0 0 0 0 0 0 0 0 0 0 0 0 0 0 0 0 0 0 0 0 0 0 0 0 0 0 -0 0 0 0 0 0 0 0
0 0 0 0 0 0 0 0 0 0 0 0 0 0 0 0 0 0 0 0 0 0 0 0 0 0 0 0 0 0 0 0 0 0 0 0 0 -0 0 0 0 0 0 0
0 0 0 0 0 0 0 0 0 0 0 0 0 0 0 0 0 0 0 0 0 0 0 0 0 0 0 0 0 0 0 0 0 0 0 0 0 0 0 0 0 0 0 0
0 0 0 0 0 0 0 0 0 0 0 0 0 0 0 0 0 0 0 0 0 0 0 0 0 0 0 0 0 0 0 0 0 0 0 0 0 0 0 0 0 0 0 0
0 0 0 0 0 0 0 0 0 0 0 0 0 0 0 0 0 0 0 0 0 0 0 0 0 0 0 0 0 0 0 0 0 0 0 0 0 0 0 0 0 0 0 0
0 0 0 0 0 0 0 0 0 0 0 0 0 0 0 0 0 0 0 0 0 0 0 0 0 0 0 0 0 0 0 0 0 0 0 0 0 0 0 0 0 0 0 0
0 0 0 0 0 0 0 0 0 0 0 0 0 0 0 0 0 0 0 0 0 0 0 0 0 0 0 0 0 0 0 0 0 0 0 0 0 0 0 0 0 0 0 0
0 0 0 0 0 0 0 0 0 0 0 0 0 0 0 0 0 0 0 0 0 0 0 0 0 0 0 0 0 0 0 0 0 0 0 0 0 0 0 0 0 0 0 0
0 0 0 0 0 0 0 0 0 0 0 0 0 0 0 0 0 0 0 0 0 0 0 0 0 0 0 0 0 0 0 0 0 0 0 0 0 0 0 0 0 -0 -0 0
0 0 0 -0 0 0 0 0 0 0 0 0 0 0 0 -0 0 0 0 0 0 0 0 0 0 0 0 0 0 0 0 0 0 0 0 0 0 0 0 0 -0 -0 0 0
0 0 0 0 0 0 0 0 0 0 0 0 -0 -0 -0 -0 -0 0 0 0 0 0 0 0 0 0 0 0 0 0 0 0 0 0 0 0 0 0 -0 0 0 0 0 0
0 0 0 0 0 0 0 0 0 0 0 -0 -0 -0 -0 0 0 0 0 0 0 0 0 0 0 0 0 0 0 0 0 0 0 0 0 -0 0 0 0 0 0 0 0 0
0 0 0 0 0 0 0 0 0 0 0 -0 -0 0 -0 0 0 0 0 0 0 0 0 0 0 0 0 0 0 0 0 0 0 0 0 0 0 0 0 0 -0 -0 0 0
0 0 0 0 0 0 0 0 0 0 0 0 0 -0 0 0 0 0 0 0 0 0 0 0 0 0 0 0 0 0 0 0 0 0 -0 -0 0 0 0 0 -0 0 0 0
Wind_Speed_500mb
3 8 9 11 13 13 9 10 11 10 10 8 24 23 30 30 22 16 22 28 30 19 3 8 12 23 44 47 49 57 61 42 28 23 21 16 10 11 18 26 30 30 33 37
4 3 8 6 9 9 8 5 8 11 8 6 9 44 33 39 43 28 22 31 18 6 10 24 23 22 17 19 22 31 35 19 13 5 12 15 20 28 33 33 33 37 39 42
7 6 1 7 5 7 5 7 15 11 14 13 4 16 40 35 37 32 28 26 26 19 25 24 26 30 31 25 22 23 21 16 11 12 14 18 24 28 31 34 36 37 42 42
4 6 3 13 14 8 15 7 4 6 10 17 18 21 30 31 31 30 30 23 24 21 27 29 30 35 38 36 33 28 26 24 25 28 31 34 34 35 35 35 38 41 47 51
8 4 8 10 1 4 7 2 1 8 12 18 29 18 10 24 26 16 16 16 13 16 27 32 36 29 30 31 26 23 22 20 21 24 27 29 30 33 39 42 46 52 59 66
5 8 11 13 13 8 7 3 7 5 19 30 32 8 7 23 20 21 14 12 15 26 31 32 29 20 15 13 14 17 18 20 24 30 33 37 41 45 49 55 61 66 70 72
5 4 11 13 10 6 4 14 15 22 26 41 9 7 30 28 26 22 23 20 18 13 7 4 3 8 13 16 23 24 28 32 35 39 41 45 48 52 57 61 65 67 70 71
5 5 7 6 3 9 11 14 35 34 37 41 42 46 42 41 40 36 31 21 11 2 8 15 22 30 36 39 37 37 39 38 35 35 35 37 40 42 45 49 54 58 59 60
12 10 7 12 10 14 38 49 42 54 52 57 60 53 47 43 34 23 13 6 5 10 16 22 28 32 31 32 33 32 32 31 34 36 36 39 44 47 48 48 53 55 51 53
6 5 6 23 42 42 47 52 58 60 67 63 63 50 42 31 21 12 5 3 11 17 20 21 23 24 24 20 18 21 23 27 35 42 47 50 54 56 57 57 59 59 60 67
4 7 18 15 47 59 58 66 69 65 62 56 49 40 28 22 13 4 7 14 18 17 15 15 18 19 15 16 18 19 24 35 45 56 64 71 75 73 66 60 55 59 62 65
12 42 22 43 61 67 74 71 66 63 52 36 23 24 18 12 6 2 8 12 14 12 13 15 16 16 21 24 25 23 28 43 51 65 76 82 83 81 69 65 61 56 54 55
8 56 31 70 64 66 70 64 52 40 31 33 26 18 12 6 5 1 6 2 3 6 7 10 11 20 26 21 21 20 29 39 47 56 69 81 87 82 81 73 62 61 56 59
20 51 43 69 61 61 57 51 41 34 28 22 21 14 5 3 2 1 2 5 5 10 11 12 10 24 30 20 17 22 31 39 46 53 72 83 88 84 73 71 76 74 72 70
40 41 62 69 65 62 53 50 41 33 29 24 14 6 3 1 5 7 6 6 7 7 6 14 16 25 31 21 20 27 37 42 54 60 71 79 87 80 71 69 72 80 81 82
37 33 67 75 71 62 54 44 30 31 25 20 17 9 3 5 8 8 8 8 7 1 7 17 20 28 30 23 28 34 42 45 59 58 68 79 88 83 85 78 78 79 81 81
58 54 65 64 66 64 52 36 24 27 28 24 17 10 7 8 10 4 2 7 1 6 14 20 27 29 25 27 33 37 44 50 53 61 67 79 88 86 85 79 79 81 82 78
45 50 62 59 67 59 49 39 34 32 29 23 15 9 9 10 8 5 11 5 6 12 16 21 27 29 30 34 38 39 46 52 59 64 68 79 90 88 85 79 79 81 82 77
54 50 64 58 59 50 46 41 31 26 27 19 12 7 11 8 5 14 6 4 11 14 20 22 26 33 37 39 36 43 49 56 61 65 67 79 94 88 80 77 76 77 78 76
61 60 56 52 49 41 37 29 27 27 21 15 9 6 8 4 10 11 6 11 13 15 22 27 32 35 39 44 36 44 52 57 63 64 68 83 90 82 80 79 78 77 80 77
53 56 56 52 44 33 24 24 23 20 17 10 5 6 7 10 15 5 6 9 13 18 24 29 36 40 44 42 41 47 54 61 61 62 70 86 79 80 81 79 78 77 80 78
59 62 55 46 40 33 26 24 17 15 11 11 10 9 10 20 13 5 10 16 20 25 30 33 38 39 49 40 43 48 57 58 56 61 76 73 75 77 78 78 77 78 77 73
60 53 46 39 33 30 31 31 27 22 18 12 10 15 19 17 9 5 11 11 21 27 32 32 39 44 47 39 43 53 58 57 51 63 75 70 72 73 72 72 74 73 69 64
47 42 37 34 35 37 40 36 26 20 18 19 20 16 11 6 6 13 19 25 27 33 32 32 35 45 36 42 46 59 57 58 53 66 71 66 68 66 65 70 66 63 63 60
41 40 36 35 34 29 34 32 23 16 14 12 12 12 8 9 10 13 17 19 26 28 27 30 38 40 40 43 54 57 56 55 56 68 58 63 58 59 57 61 64 63 63 63
41 34 26 20 28 32 29 25 21 16 10 11 13 17 17 14 13 11 19 22 29 33 29 31 40 43 39 42 54 52 51 53 61 56 54 49 54 53 58 60 64 70 73 73
29 26 27 28 34 32 28 23 22 22 19 18 9 12 12 11 6 11 19 28 30 32 26 34 39 39 35 45 52 47 43 58 58 46 41 42 48 57 61 68 69 73 73 70
Wind_Direction_500mb
55 128 146 168 180 187 182 164 163 222 210 236 174 169 177 178 187 212 218 204 212 319 194 130 57 270 247 246 236 221 239 194 193 150 159 164 189 247 282 293 294 296 292 299
112 210 194 184 242 225 242 155 109 130 236 105 146 148 167 159 165 161 189 196 208 192 96 104 108 115 134 149 140 149 171 163 145 189 287 312 310 313 312 307 301 304 298 304
180 4 338 26 254 180 184 160 147 143 215 146 169 173 178 178 169 165 166 183 191 202 176 169 165 168 171 169 176 182 181 186 212 255 284 286 285 282 275 274 278 284 282 284
138 33 102 241 307 215 113 40 125 109 178 161 167 198 178 172 156 162 166 174 188 200 202 199 195 193 186 181 187 198 211 224 232 240 247 249 250 250 254 257 260 267 275 279
132 169 290 324 256 277 150 285 18 188 107 122 135 147 147 165 164 183 167 170 171 149 161 161 170 168 180 181 184 191 199 214 230 240 244 247 254 258 261 268 273 277 279 285
106 130 199 246 302 26 106 322 219 147 156 146 159 141 238 181 183 189 197 153 123 118 128 135 129 140 174 192 211 234 257 276 284 286 288 283 281 283 283 284 284 283 285 285
158 169 277 249 280 17 88 237 163 150 169 164 131 154 141 163 151 142 140 139 136 140 161 138 242 279 288 296 296 308 309 307 307 306 306 301 296 294 291 288 288 288 287 284
80 102 268 196 126 175 182 139 151 148 155 146 135 133 133 134 134 137 138 139 143 260 300 302 303 306 312 316 323 328 333 337 337 338 337 329 322 316 309 307 299 295 294 292
162 219 268 285 253 182 163 152 147 152 149 148 141 135 134 133 136 140 155 194 262 301 314 319 323 325 324 329 336 339 344 348 353 352 347 342 336 329 324 316 309 304 303 305
97 341 39 127 141 151 157 153 153 157 152 152 143 144 143 148 153 159 166 302 320 318 317 318 321 330 340 347 354 353 354 359 357 351 346 343 339 334 327 323 319 313 309 308
67 3 92 135 156 154 148 147 146 147 149 147 145 145 149 150 154 192 302 317 319 323 334 344 350 355 3 4 359 352 354 351 347 346 342 338 336 334 328 320 310 303 296 293
208 190 172 185 164 162 155 154 153 151 145 145 150 145 149 151 165 282 318 318 315 324 334 339 353 4 3 352 345 340 347 349 348 347 347 348 343 333 326 320 315 311 302 289
217 189 200 173 168 167 160 156 153 154 156 153 146 139 129 129 140 338 332 336 50 16 10 11 37 20 356 344 342 344 342 341 343 347 351 350 347 340 329 327 322 316 306 295
218 162 139 165 166 166 159 153 151 143 137 135 131 129 102 104 132 18 87 124 84 75 64 52 27 5 356 341 340 336 335 335 334 333 342 344 346 343 337 323 322 322 324 320
178 195 178 167 163 163 162 156 153 151 153 152 150 153 145 179 159 130 89 142 123 86 34 7 346 348 345 329 327 333 334 333 328 324 334 341 344 341 330 321 317 322 325 324
177 174 161 163 164 164 165 166 165 166 172 174 172 169 179 159 151 120 77 132 139 119 351 337 333 341 336 334 336 337 333 323 328 328 335 340 341 340 336 330 326 325 325 324
147 144 156 162 170 171 172 177 186 181 182 184 177 173 180 174 148 117 140 157 67 18 0 348 349 343 348 340 336 334 330 330 331 334 335 339 339 337 334 329 328 326 323 326
203 197 193 193 177 175 181 185 186 184 179 174 164 160 180 171 141 115 137 124 4 355 356 355 350 355 351 340 329 329 335 338 338 334 334 337 338 337 334 332 330 326 327 328
201 192 189 188 180 180 180 178 178 176 171 170 174 183 167 144 115 155 163 272 316 335 4 352 348 351 343 336 327 335 340 338 334 332 332 336 337 335 334 334 333 332 333 331
188 188 182 179 177 175 168 175 177 174 174 177 185 187 180 173 175 182 255 300 314 341 347 353 352 342 335 341 340 340 335 331 331 332 332 334 333 334 335 336 334 333 334 332
186 181 173 169 167 173 177 175 175 174 173 197 229 223 221 201 178 219 298 0 14 345 336 338 341 335 332 338 341 337 333 330 332 334 334 333 335 335 335 335 334 334 333 330
170 168 166 169 168 162 165 164 158 155 172 194 205 203 194 177 185 241 291 323 344 335 329 334 335 330 334 336 341 334 332 333 335 338 338 340 338 337 337 337 336 334 332 328
161 164 167 168 168 163 156 151 132 115 113 129 147 142 144 156 192 276 350 358 344 343 325 327 332 334 339 347 340 334 337 338 336 343 348 345 343 342 342 342 341 339 337 335
163 164 160 158 158 157 156 152 146 135 119 115 129 129 143 168 264 283 303 316 324 330 330 324 329 343 349 350 339 340 343 341 337 339 347 347 347 350 353 352 356 0 0 359
162 159 159 163 164 153 154 155 163 174 186 195 204 207 223 271 304 342 334 339 343 333 320 320 340 352 350 347 341 346 347 348 345 348 353 354 359 3 5 10 13 15 14 13
164 168 162 166 170 162 165 174 179 180 191 221 246 250 247 262 293 322 335 334 340 343 324 324 346 351 347 340 345 350 355 357 352 356 358 9 17 18 20 23 23 21 20 19
165 169 168 170 175 173 178 193 215 228 234 238 273 251 227 222 303 314 322 331 346 346 327 333 346 347 344 342 348 356 5 8 6 4 10 13 18 22 29 26 27 22 20 17
Wind_Speed_850mb
3 8 9 11 13 13 9 10 11 10 10 8 24 23 30 30 22 16 22 28 30 19 3 8 12 23 44 47 49 57 61 42 28 23 21 16 10 11 18 26 30 30 33 37
4 3 8 6 9 9 8 5 8 11 8 6 9 44 33 39 43 28 22 31 18 6 10 24 23 22 17 19 22 31 35 19 13 5 12 15 20 28 33 33 33 37 39 42
7 6 1 7 5 7 5 7 15 11 14 13 4 16 40 35 37 32 28 26 26 19 25 24 26 30 31 25 22 23 21 16 11 12 14 18 24 28 31 34 36 37 42 42
4 6 3 13 14 8 15 7 4 6 10 17 18 21 30 31 31 30 30 23 24 21 27 29 30 35 38 36 33 28 26 24 25 28 31 34 34 35 35 35 38 41 47 51
8 4 8 10 1 4 7 2 1 8 12 18 29 18 10 24 26 16 16 16 13 16 27 32 36 29 30 31 26 23 22 20 21 24 27 29 30 33 39 42 46 52 59 66
5 8 11 13 13 8 7 3 7 5 19 30 32 8 7 23 20 21 14 12 15 26 31 32 29 20 15 13 14 17 18 20 24 30 33 37 41 45 49 55 61 66 70 72
5 4 11 13 10 6 4 14 15 22 26 41 9 7 30 28 26 22 23 20 18 13 7 4 3 8 13 16 23 24 28 32 35 39 41 45 48 52 57 61 65 67 70 71
5 5 7 6 3 9 11 14 35 34 37 41 42 46 42 41 40 36 31 21 11 2 8 15 22 30 36 39 37 37 39 38 35 35 35 37 40 42 45 49 54 58 59 60
12 10 7 12 10 14 38 49 42 54 52 57 60 53 47 43 34 23 13 6 5 10 16 22 28 32 31 32 33 32 32 31 34 36 36 39 44 47 48 48 53 55 51 53
6 5 6 23 42 42 47 52 58 60 67 63 63 50 42 31 21 12 5 3 11 17 20 21 23 24 24 20 18 21 23 27 35 42 47 50 54 56 57 57 59 59 60 67
4 7 18 15 47 59 58 66 69 65 62 56 49 40 28 22 13 4 7 14 18 17 15 15 18 19 15 16 18 19 24 35 45 56 64 71 75 73 66 60 55 59 62 65
12 42 22 43 61 67 74 71 66 63 52 36 23 24 18 12 6 2 8 12 14 12 13 15 16 16 21 24 25 23 28 43 51 65 76 82 83 81 69 65 61 56 54 55
8 56 31 70 64 66 70 64 52 40 31 33 26 18 12 6 5 1 6 2 3 6 7 10 11 20 26 21 21 20 29 39 47 56 69 81 87 82 81 73 62 61 56 59
20 51 43 69 61 61 57 51 41 34 28 22 21 14 5 3 2 1 2 5 5 10 11 12 10 24 30 20 17 22 31 39 46 53 72 83 88 84 73 71 76 74 72 70
40 41 62 69 65 62 53 50 41 33 29 24 14 6 3 1 5 7 6 6 7 7 6 14 16 25 31 21 20 27 37 42 54 60 71 79 87 80 71 69 72 80 81 82
37 33 67 75 71 62 54 44 30 31 25 20 17 9 3 5 8 8 8 8 7 1 7 17 20 28 30 23 28 34 42 45 59 58 68 79 88 83 85 78 78 79 81 81
58 54 65 64 66 64 52 36 24 27 28 24 17 10 7 8 10 4 2 7 1 6 14 20 27 29 25 27 33 37 44 50 53 61 67 79 88 86 85 79 79 81 82 78
45 50 62 59 67 59 49 39 34 32 29 23 15 9 9 10 8 5 11 5 6 12 16 21 27 29 30 34 38 39 46 52 59 64 68 79 90 88 85 79 79 81 82 77
54 50 64 58 59 50 46 41 31 26 27 19 12 7 11 8 5 14 6 4 11 14 20 22 26 33 37 39 36 43 49 56 61 65 67 79 94 88 80 77 76 77 78 76
61 60 56 52 49 41 37 29 27 27 21 15 9 6 8 4 10 11 6 11 13 15 22 27 32 35 39 44 36 44 52 57 63 64 68 83 90 82 80 79 78 77 80 77
53 56 56 52 44 33 24 24 23 20 17 10 5 6 7 10 15 5 6 9 13 18 24 29 36 40 44 42 41 47 54 61 61 62 70 86 79 80 81 79 78 77 80 78
59 62 55 46 40 33 26 24 17 15 11 11 10 9 10 20 13 5 10 16 20 25 30 33 38 39 49 40 43 48 57 58 56 61 76 73 75 77 78 78 77 78 77 73
60 53 46 39 33 30 31 31 27 22 18 12 10 15 19 17 9 5 11 11 21 27 32 32 39 44 47 39 43 53 58 57 51 63 75 70 72 73 72 72 74 73 69 64
47 42 37 34 35 37 40 36 26 20 18 19 20 16 11 6 6 13 19 25 27 33 32 32 35 45 36 42 46 59 57 58 53 66 71 66 68 66 65 70 66 63 63 60
41 40 36 35 34 29 34 32 23 16 14 12 12 12 8 9 10 13 17 19 26 28 27 30 38 40 40 43 54 57 56 55 56 68 58 63 58 59 57 61 64 63 63 63
41 34 26 20 28 32 29 25 21 16 10 11 13 17 17 14 13 11 19 22 29 33 29 31 40 43 39 42 54 52 51 53 61 56 54 49 54 53 58 60 64 70 73 73
29 26 27 28 34 32 28 23 22 22 19 18 9 12 12 11 6 11 19 28 30 32 26 34 39 39 35 45 52 47 43 58 58 46 41 42 48 57 61 68 69 73 73 70
Wind_Direction_850mb
55 128 146 168 180 187 182 164 163 222 210 236 174 169 177 178 187 212 218 204 212 319 194 130 57 270 247 246 236 221 239 194 193 150 159 164 189 247 282 293 294 296 292 299
112 210 194 184 242 225 242 155 109 130 236 105 146 148 167 159 165 161 189 196 208 192 96 104 108 115 134 149 140 149 171 163 145 189 287 312 310 313 312 307 301 304 298 304
180 4 338 26 254 180 184 160 147 143 215 146 169 173 178 178 169 165 166 183 191 202 176 169 165 168 171 169 176 182 181 186 212 255 284 286 285 282 275 274 278 284 282 284
138 33 102 241 307 215 113 40 125 109 178 161 167 198 178 172 156 162 166 174 188 200 202 199 195 193 186 181 187 198 211 224 232 240 247 249 250 250 254 257 260 267 275 279
132 169 290 324 256 277 150 285 18 188 107 122 135 147 147 165 164 183 167 170 171 149 161 161 170 168 180 181 184 191 199 214 230 240 244 247 254 258 261 268 273 277 279 285
106 130 199 246 302 26 106 322 219 147 156 146 159 141 238 181 183 189 197 153 123 118 128 135 129 140 174 192 211 234 257 276 284 286 288 283 281 283 283 284 284 283 285 285
158 169 277 249 280 17 88 237 163 150 169 164 131 154 141 163 151 142 140 139 136 140 161 138 242 279 288 296 296 308 309 307 307 306 306 301 296 294 291 288 288 288 287 284
80 102 268 196 126 175 182 139 151 148 155 146 135 133 133 134 134 137 138 139 143 260 300 302 303 306 312 316 323 328 333 337 337 338 337 329 322 316 309 307 299 295 294 292
162 219 268 285 253 182 163 152 147 152 149 148 141 135 134 133 136 140 155 194 262 301 314 319 323 325 324 329 336 339 344 348 353 352 347 342 336 329 324 316 309 304 303 305
97 341 39 127 141 151 157 153 153 157 152 152 143 144 143 148 153 159 166 302 320 318 317 318 321 330 340 347 354 353 354 359 357 351 346 343 339 334 327 323 319 313 309 308
67 3 92 135 156 154 148 147 146 147 149 147 145 145 149 150 154 192 302 317 319 323 334 344 350 355 3 4 359 352 354 351 347 346 342 338 336 334 328 320 310 303 296 293
208 190 172 185 164 162 155 154 153 151 145 145 150 145 149 151 165 282 318 318 315 324 334 339 353 4 3 352 345 340 347 349 348 347 347 348 343 333 326 320 315 311 302 289
217 189 200 173 168 167 160 156 153 154 156 153 146 139 129 129 140 338 332 336 50 16 10 11 37 20 356 344 342 344 342 341 343 347 351 350 347 340 329 327 322 316 306 295
218 162 139 165 166 166 159 153 151 143 137 135 131 129 102 104 132 18 87 124 84 75 64 52 27 5 356 341 340 336 335 335 334 333 342 344 346 343 337 323 322 322 324 320
178 195 178 167 163 163 162 156 153 151 153 152 150 153 145 179 159 130 89 142 123 86 34 7 346 348 345 329 327 333 334 333 328 324 334 341 344 341 330 321 317 322 325 324
177 174 161 163 164 164 165 166 165 166 172 174 172 169 179 159 151 120 77 132 139 119 351 337 333 341 336 334 336 337 333 323 328 328 335 340 341 340 336 330 326 325 325 324
147 144 156 162 170 171 172 177 186 181 182 184 177 173 180 174 148 117 140 157 67 18 0 348 349 343 348 340 336 334 330 330 331 334 335 339 339 337 334 329 328 326 323 326
203 197 193 193 177 175 181 185 186 184 179 174 164 160 180 171 141 115 137 124 4 355 356 355 350 355 351 340 329 329 335 338 338 334 334 337 338 337 334 332 330 326 327 328
201 192 189 188 180 180 180 178 178 176 171 170 174 183 167 144 115 155 163 272 316 335 4 352 348 351 343 336 327 335 340 338 334 332 332 336 337 335 334 334 333 332 333 331
188 188 182 179 177 175 168 175 177 174 174 177 185 187 180 173 175 182 255 300 314 341 347 353 352 342 335 341 340 340 335 331 331 332 332 334 333 334 335 336 334 333 334 332
186 181 173 169 167 173 177 175 175 174 173 197 229 223 221 201 178 219 298 0 14 345 336 338 341 335 332 338 341 337 333 330 332 334 334 333 335 335 335 335 334 334 333 330
170 168 166 169 168 162 165 164 158 155 172 194 205 203 194 177 185 241 291 323 344 335 329 334 335 330 334 336 341 334 332 333 335 338 338 340 338 337 337 337 336 334 332 328
161 164 167 168 168 163 156 151 132 115 113 129 147 142 144 156 192 276 350 358 344 343 325 327 332 334 339 347 340 334 337 338 336 343 348 345 343 342 342 342 341 339 337 335
163 164 160 158 158 157 156 152 146 135 119 115 129 129 143 168 264 283 303 316 324 330 330 324 329 343 349 350 339 340 343 341 337 339 347 347 347 350 353 352 356 0 0 359
162 159 159 163 164 153 154 155 163 174 186 195 204 207 223 271 304 342 334 339 343 333 320 320 340 352 350 347 341 346 347 348 345 348 353 354 359 3 5 10 13 15 14 13
164 168 162 166 170 162 165 174 179 180 191 221 246 250 247 262 293 322 335 334 340 343 324 324 346 351 347 340 345 350 355 357 352 356 358 9 17 18 20 23 23 21 20 19
165 169 168 170 175 173 178 193 215 228 234 238 273 251 227 222 303 314 322 331 346 346 327 333 346 347 344 342 348 356 5 8 6 4 10 13 18 22 29 26 27 22 20 17